GW0762 Weather Reports


Display with metric or nautical units.
time (UTC)temp
F
wind
direction
speed
MPH
gust
MPH
rain 1hr
in
rain 24hr
in
rain mn
in
humidity
%
barometer
mb
20260510224605 72 0 0.0 6.0 0.00 0.00 0.00 71 1015.1
20260510223059 73 163 0.0 3.0 0.00 0.00 0.00 71 1015.0
20260510221601 73 360 0.0 2.0 0.00 0.00 0.00 72 1015.0
20260510220104 73 0 1.0 4.0 0.00 0.00 0.00 70 1014.8
20260510214559 74 121 0.0 4.0 0.00 0.00 0.00 68 1014.4
20260510213057 73 0 0.0 3.0 0.00 0.00 0.00 70 1014.4
20260510211557 73 0 0.0 2.0 0.00 0.00 0.00 72 1014.3
20260510210110 74 0 0.0 2.0 0.00 0.00 0.00 72 1014.3
20260510204604 75 0 1.0 4.0 0.00 0.00 0.00 64 1014.1
20260510203058 74 189 3.0 6.0 0.00 0.00 0.00 63 1014.0
20260510201602 74 159 0.0 2.0 0.00 0.00 0.00 70 1014.2
20260510200100 75 360 0.0 4.0 0.00 0.00 0.00 64 1014.0
20260510194601 75 130 1.0 5.0 0.00 0.00 0.00 67 1014.3
20260510193112 75 120 1.0 3.0 0.00 0.00 0.00 66 1014.4
20260510191602 76 304 1.0 8.0 0.00 0.00 0.00 61 1014.3
20260510190058 75 285 2.0 8.0 0.00 0.00 0.00 58 1014.4
20260510184601 76 0 1.0 3.0 0.00 0.00 0.00 59 1014.3
20260510183103 76 360 1.0 8.0 0.00 0.00 0.00 55 1014.3
20260510181615 76 177 2.0 8.0 0.00 0.00 0.00 55 1014.3
20260510180110 78 234 3.0 9.0 0.00 0.00 0.00 56 1014.1
20260510174557 77 275 0.0 9.0 0.00 0.00 0.00 60 1014.0
20260510173057 76 171 2.0 6.0 0.00 0.00 0.00 58 1014.1
20260510171604 76 188 2.0 8.0 0.00 0.00 0.00 64 1014.2
20260510170111 75 191 3.0 7.0 0.00 0.00 0.00 62 1014.3
20260510164603 75 167 1.0 5.0 0.00 0.00 0.00 60 1014.3
20260510163059 76 311 2.0 9.0 0.00 0.00 0.00 54 1014.4
20260510161558 77 271 2.0 10.0 0.00 0.00 0.00 58 1014.3
20260510160105 76 147 1.0 7.0 0.00 0.00 0.00 58 1014.3
20260510154617 76 188 1.0 5.0 0.00 0.00 0.00 55 1014.2
20260510153058 74 165 3.0 9.0 0.00 0.00 0.00 58 1014.2
20260510151601 74 277 3.0 7.0 0.00 0.00 0.00 58 1014.4
20260510150105 73 215 1.0 7.0 0.00 0.00 0.00 60 1014.2
20260510144610 73 201 1.0 7.0 0.00 0.00 0.00 62 1014.5
20260510143057 70 144 1.0 5.0 0.00 0.00 0.00 71 1014.6
20260510141558 65 360 1.0 5.0 0.00 0.00 0.00 87 1014.6
20260510140058 62 360 1.0 3.0 0.00 0.00 0.00 94 1014.5
20260510134601 61 360 0.0 2.0 0.00 0.00 0.00 94 1014.7
20260510133059 58 0 0.0 1.0 0.00 0.00 0.00 94 1014.6
20260510131604 58 0 0.0 1.0 0.00 0.00 0.00 94 1014.5
20260510130100 56 0 0.0 2.0 0.00 0.00 0.00 94 1014.4
20260510124612 54 0 0.0 2.0 0.00 0.00 0.00 94 1014.4
20260510123111 52 0 0.0 1.0 0.00 0.00 0.00 93 1014.3
20260510121601 50 0 0.0 0.0 0.00 0.00 0.00 93 1014.3
20260510120103 49 0 0.0 0.0 0.00 0.00 0.00 93 1014.3
20260510114606 48 0 0.0 0.0 0.00 0.00 0.00 93 1014.1
20260510113105 47 0 0.0 0.0 0.00 0.00 0.00 92 1014.0
20260510111624 47 0 0.0 0.0 0.00 0.00 0.00 92 1013.7
20260510110058 47 0 0.0 0.0 0.00 0.00 0.00 92 1013.3
20260510104609 47 0 0.0 0.0 0.00 0.00 0.00 92 1013.2
20260510103101 47 0 0.0 0.0 0.00 0.00 0.00 92 1013.2
20260510101559 47 0 0.0 0.0 0.00 0.00 0.00 92 1013.0
20260510100101 47 0 0.0 0.0 0.00 0.00 0.00 92 1013.0
20260510094600 47 0 0.0 0.0 0.00 0.00 0.00 92 1012.5
20260510093059 47 0 0.0 0.0 0.00 0.00 0.00 92 1012.3
20260510091613 47 0 0.0 0.0 0.00 0.00 0.00 92 1012.2
20260510090127 48 0 0.0 0.0 0.00 0.00 0.00 92 1012.1
20260510084606 48 0 0.0 0.0 0.00 0.00 0.00 91 1012.0
20260510083114 48 0 0.0 0.0 0.00 0.00 0.00 91 1011.8
20260510081601 48 0 0.0 0.0 0.00 0.00 0.00 91 1011.8
20260510074602 49 0 0.0 0.0 0.00 0.00 0.00 91 1011.5
20260510073103 49 0 0.0 0.0 0.00 0.00 0.00 91 1011.7
20260510071600 49 0 0.0 0.0 0.00 0.00 0.00 91 1011.6
20260510070108 49 0 0.0 0.0 0.00 0.00 0.00 91 1011.5
20260510064612 49 0 0.0 0.0 0.00 0.00 0.00 91 1011.5
20260510063058 49 0 0.0 0.0 0.00 0.00 0.00 91 1011.6
20260510061601 49 0 0.0 0.0 0.00 0.00 0.00 91 1011.7
20260510060056 50 0 0.0 0.0 0.00 0.00 0.00 91 1011.7
20260510054603 50 0 0.0 0.0 0.00 0.00 0.00 90 1011.9
20260510053057 50 0 0.0 0.0 0.00 0.00 0.00 90 1011.8
20260510051608 50 0 0.0 0.0 0.00 0.00 0.00 90 1011.9
20260510044611 51 0 0.0 0.0 0.00 0.00 0.00 90 1011.9
20260510043100 51 0 0.0 0.0 0.00 0.00 0.00 90 1012.1
20260510041610 52 0 0.0 0.0 0.00 0.00 0.00 89 1012.1
20260510040058 52 0 0.0 0.0 0.00 0.00 0.00 89 1012.1
20260510034605 52 0 0.0 0.0 0.00 0.00 0.00 89 1012.0
20260510033100 53 0 0.0 0.0 0.00 0.00 0.00 89 1012.0
20260510031609 53 0 0.0 0.0 0.00 0.00 0.00 88 1011.9
20260510030107 54 0 0.0 0.0 0.00 0.00 0.00 88 1011.9
20260510024557 54 0 0.0 0.0 0.00 0.00 0.00 88 1011.7
20260510023058 55 0 0.0 0.0 0.00 0.00 0.00 87 1011.6
20260510021558 55 0 0.0 0.0 0.00 0.00 0.00 86 1011.3
20260510020057 56 0 0.0 0.0 0.00 0.00 0.00 86 1010.9
20260510014559 57 0 0.0 0.0 0.00 0.00 0.00 86 1010.9
20260510013102 58 0 0.0 0.0 0.00 0.00 0.00 85 1010.5
20260510011600 59 0 0.0 0.0 0.00 0.00 0.00 84 1010.4
20260510010057 60 0 0.0 0.0 0.00 0.00 0.00 83 1010.3
20260510004602 61 0 0.0 0.0 0.00 0.00 0.00 81 1010.1
20260510003102 62 0 0.0 0.0 0.00 0.00 0.00 79 1009.9
20260510001557 64 0 0.0 1.0 0.00 0.00 0.00 77 1009.6
20260510000114 65 248 0.0 2.0 0.00 0.00 0.00 74 1009.5
20260509234630 66 0 0.0 5.0 0.00 0.00 0.00 71 1009.4
20260509233101 68 328 0.0 5.0 0.00 0.00 0.00 68 1009.4
20260509231612 70 341 1.0 9.0 0.00 0.00 0.00 65 1009.4
20260509230106 70 306 2.0 9.0 0.00 0.00 0.00 63 1009.3